loading
DOY 173 | 2024-06-21T05:41:21Z

THOR ABLESTAR DEB, 559

Orbit data source: Space-Track

THOR ABLESTAR DEB, 559 is space debris in LEO originally from a launch on Thu, 29 Jun 1961 UTC launched from the Air Force Eastern Test Range (AFETR). Debris objects in space refer to the collection of defunct objects orbiting the Earth. Examples of debris include non-operational satellites, rocket bodies, and fragments generated from explosions, collisions, or faulty payload assembly.

Loading next visibility...
Loading greatness...
THOR ABLESTAR DEB details
NORAD ID559
COSPAR ID
1961-015GR
Orbit
LEO
Last TLE update1 day ago
Origin
Flag of USUSAF SSD (US)
ManufacturerUnknown
BusUnknown
MotorUnknown
MassWet unknown, Dry mass unknown
Launch date (UTC)
1961-06-29 (63 years ago)
Launch vehicleUnknown
Launch site
Air Force Eastern Test Range (AFETR)
Object type
Payload
Rocket body
Debris
Radar Cross SectionSmall (<0.1 m²)
Predictive object data (real-time)
Latitude33.07532°
Longitude-74.50359°
Altitude694.587 km
Speed7.522 km/s
Apparent Right ascension08h 18m 34s
Apparent Declination-1° 49' 38"
Sunlit
Object is in daylight
Predictive observer data (real-time)
Local Sidereal Time16:40:32
Azimuth293.149° NW
Elevation-27.747°
Doppler factor1
Orbital elements
Apogee753.001 km
Perigee661.015 km
Semi-major axis7,085.145 km
Eccentricity0.0064915
Inclination66.6032°
RAAN154.2041°
Arg. of periapsis329.3439°
True anomaly30.76734°
Mean anomaly30.3884°
Mean motion3.63932 °/min
BSTAR0.0014589
Period98.92 mins
Definitive object data (Epoch: 2024-06-19T22:11:05.079Z)
Latitude-0.00004°
Longitude-87.19086°
Altitude671.154 km
Speed7.543 km/s
True Right ascension10h 16m 48s
True Declination0° 00' 00"
Sunlit
Object was in daylight at TLE epoch
TLE from 1 day ago
0 THOR ABLESTAR DEB
1 00559U 61015GR  24171.92436435  .00006412  00000-0  14589-2 0  9995
2 00559  66.6032 154.2041 0064915 329.3439  30.3884 14.55222961243203
Epoch: 2024-06-19T22:11Z
No data available

THOR ABLESTAR DEB Visibility forecast

Observer location: 39.9160978°, -105.1181434, 0m alt.

THOR ABLESTAR DEB is not visible in the next 10 days
Span
Click to sort rows by Start time (UTC) header in descending order
Start Az.
Max El. time (UTC)
Max El. Az.
Max El.
End time (UTC)
End Az.